Station FRDW1 - 9449880 - Friday Harbor, WA Image indicating link to RSS feed of recent meteorological observations for station FRDW1


Conditions at FRDW1 as of
(11:36 pm PDT on 06/16/2024)
0636 GMT on 06/17/2024:
     

Click on the graph icon in the table below to see a time series plot of the last five days of that observation.

5-day plot - Wind Direction Wind Direction (WDIR):ENE ( 70 deg true )
5-day plot - Wind Speed Wind Speed (WSPD): 1.0 kts
5-day plot - Wind Gust Wind Gust (GST): 2.9 kts
5-day plot - Atmospheric Pressure Atmospheric Pressure (PRES):29.99 in
5-day plot - Air Temperature Air Temperature (ATMP): 51.4 °F
5-day plot - Water Temperature Water Temperature (WTMP): 51.4 °F
5-day plot - Wind Speed at 10 Meters Wind Speed at 10 meters (WSPD10M): 1.9 kts
5-day plot - Wind Speed at 20 Meters Wind Speed at 20 meters (WSPD20M): 1.9 kts
5-day plot -  Wind Speed, Wind Gust and Atmospheric Pressure Combined plot of Wind Speed, Gust, and Air Pressure
NOS Water Level Observation Network Water Level
Previous observations
TIME
(PDT)
5-day plot - Wind Direction
WDIR
 
5-day plot - Wind Speed
WSPD
kts
5-day plot - Wind Gust
GST
kts
5-day plot - Wave Height
WVHT
ft
5-day plot - Dominant Wave Period
DPD
sec
5-day plot - Average Wave Period
APD
sec
5-day plot - Mean Wave Direction
MWD
 
5-day plot - Atmospheric Pressure
PRES
in
5-day plot - Pressure Tendency
PTDY
in
5-day plot - Air Temperature
ATMP
°F
5-day plot - Water Temperature
WTMP
°F
5-day plot - Dew Point
DEWP
°F
5-day plot - Salinity
SAL
psu
5-day plot - Visibility
VIS
nmi
5-day plot - Tide (above MLLW)
TIDE
ft
2024-06-16 11:30 pm- 0.0 1.0----29.99- 51.4 51.4----
2024-06-16 11:24 pm- 0.0 1.9----29.99- 51.3 51.4----
2024-06-16 11:18 pm- 0.0 1.9----29.99- 51.3 51.4----
2024-06-16 11:12 pmNNE 1.9 1.9----29.99- 51.4 51.4----
2024-06-16 11:06 pm- 0.0 0.0----29.99- 51.4 51.4----
2024-06-16 11:00 pm- 0.0 0.0----29.99+0.00 51.4 51.4----
2024-06-16 10:54 pm- 0.0 0.0----29.99- 51.4 51.4----
2024-06-16 10:48 pm- 0.0 1.0----29.99- 51.6 51.4----
2024-06-16 10:42 pm- 0.0 1.0----29.99- 51.6 51.4----
2024-06-16 10:36 pm- 0.0 0.0----29.99- 51.6 51.4----
2024-06-16 10:30 pm- 0.0 1.0----29.99- 51.8 51.4----
2024-06-16 10:24 pm- 0.0 0.0----29.99- 52.0 51.4----
2024-06-16 10:18 pm- 0.0 0.0----29.99- 52.2 51.4----
2024-06-16 10:12 pm- 0.0 1.9----29.99- 52.3 51.4----
2024-06-16 10:06 pmSSW 1.0 1.9----29.99- 52.5 51.4----
2024-06-16 10:00 pm S 1.0 2.9----29.99-0.01 52.7 51.4----
2024-06-16 09:54 pm S 1.9 2.9----29.99- 52.7 51.6----
2024-06-16 09:48 pm S 1.9 2.9----29.99- 52.9 51.6----
2024-06-16 09:42 pmSSE 1.9 2.9----30.00- 53.1 51.6----
2024-06-16 09:36 pmSSE 2.9 4.1----29.99- 53.1-----
2024-06-16 09:30 pmSSW 2.9 4.1----30.00- 53.1-----
2024-06-16 09:24 pm SW 4.1 5.1----30.00- 53.2-----
2024-06-16 09:18 pm SW 5.1 6.0----30.00- 53.2-----
2024-06-16 09:12 pmSSW 5.1 6.0----30.00- 53.2-----
2024-06-16 09:06 pmSSW 4.1 6.0----30.00- 53.4-----
2024-06-16 09:00 pm SW 6.0 7.0----30.00-0.02 53.6-----
2024-06-16 08:54 pm SW 5.1 7.0----30.00- 53.6-----
2024-06-16 08:48 pmWSW 7.0 8.0----29.99- 53.8-----
2024-06-16 08:42 pm SW 6.0 8.9----30.00- 54.0-----
2024-06-16 08:36 pm SW 5.1 8.0----30.00- 54.0 51.3----
2024-06-16 08:30 pm SW 6.0 8.0----30.00- 54.3 51.3----
2024-06-16 08:24 pm SW 8.0 8.9----30.00- 54.5 51.3----
2024-06-16 08:18 pm SW 6.0 7.0----29.99- 54.7 51.3----
2024-06-16 08:12 pm SW 6.0 6.0----29.99- 55.0 51.3----
2024-06-16 08:06 pmWSW 5.1 7.0----29.99- 55.2 51.3----
2024-06-16 08:00 pmWSW 7.0 7.0----29.99-0.04 55.2 51.3----
2024-06-16 07:54 pmWSW 6.0 8.0----29.99- 55.6 51.3----
2024-06-16 07:48 pmWSW 5.1 6.0----30.00- 55.6 51.3----
2024-06-16 07:42 pmSSW 2.9 4.1----30.00- 55.8 51.3----
2024-06-16 07:36 pmSSW 2.9 4.1----30.00- 55.8 51.3----
2024-06-16 07:30 pm SW 1.9 4.1----30.00- 55.2 51.3----
2024-06-16 07:24 pm S 1.9 5.1----30.00- 55.6 51.3----
2024-06-16 07:18 pm S 4.1 5.1----30.00- 55.9 51.3----
2024-06-16 07:12 pmSSW 4.1 5.1----30.00- 55.8 51.4----
2024-06-16 07:06 pm SW 4.1 5.1----30.00- 55.9 51.4----
2024-06-16 07:00 pm SW 4.1 5.1----30.00-0.04 55.6 51.6----
2024-06-16 06:54 pmWSW 2.9 5.1----30.00- 55.4 51.6----
2024-06-16 06:48 pm SW 4.1 6.0----30.00- 55.6 51.6----
2024-06-16 06:42 pmSSW 4.1 6.0----30.00- 55.4 51.6----
2024-06-16 06:36 pm SW 4.1 5.1----30.00- 55.6 51.8----
2024-06-16 06:30 pm SW 5.1 6.0----30.00- 55.4 51.8----
2024-06-16 06:24 pmWSW 2.9 5.1----30.01- 55.6 51.8----
2024-06-16 06:18 pmWSW 6.0 7.0----30.01- 55.4 52.0----
2024-06-16 06:12 pmWSW 5.1 5.1----30.01- 55.2 52.0----
2024-06-16 06:06 pmWSW 2.9 4.1----30.01- 55.6 51.8----
2024-06-16 06:00 pmWSW 1.9 4.1----30.02-0.03 55.8 51.4----
2024-06-16 05:54 pmWSW 1.9 2.9----30.02- 55.8 51.4----
2024-06-16 05:48 pm W 1.9 6.0----30.02- 55.8 51.8----
2024-06-16 05:42 pmWSW 2.9 5.1----30.02- 55.4 51.8----
2024-06-16 05:36 pmWSW 2.9 6.0----30.02- 55.4 51.4----
2024-06-16 05:30 pmWSW 4.1 7.0----30.02- 55.2 51.3----
2024-06-16 05:24 pmWSW 5.1 7.0----30.03- 55.0 50.9----
2024-06-16 05:18 pmWSW 4.1 5.1----30.03- 55.2 50.9----
2024-06-16 05:12 pmWSW 4.1 5.1----30.03- 55.2 50.7----
2024-06-16 05:06 pmWSW 1.0 1.9----30.03- 55.9 50.7----
2024-06-16 05:00 pm- 0.0 1.9----30.03-0.03 55.4 50.7----
2024-06-16 04:54 pmSSE 1.0 1.9----30.03- 55.4 50.7----
2024-06-16 04:48 pm S 1.9 1.9----30.03- 55.0 50.7----
2024-06-16 04:42 pm E 1.9 5.1----30.03- 54.7 50.7----
2024-06-16 04:36 pmENE 2.9 5.1----30.03- 54.7 50.7----
2024-06-16 04:30 pmENE 4.1 5.1----30.03- 54.7 50.7----
2024-06-16 04:24 pmENE 5.1 5.1----30.03- 54.7 50.7----
2024-06-16 04:18 pmENE 4.1 7.0----30.03- 54.7 50.7----
2024-06-16 04:12 pm E 5.1 7.0----30.03- 54.0 50.7----
2024-06-16 04:06 pm E 5.1 7.0----30.04- 53.8 50.7----
2024-06-16 04:00 pm E 5.1 7.0----30.04-0.04 53.6 50.7----
2024-06-16 03:54 pmENE 5.1 7.0----30.04- 54.5 50.7----
2024-06-16 03:48 pm NE 4.1 5.1----30.04- 55.4 50.7----
2024-06-16 03:42 pmENE 4.1 5.1----30.04- 54.5 50.7----
2024-06-16 03:36 pm E 2.9 4.1----30.04- 53.8 50.7----
2024-06-16 03:30 pm E 2.9 4.1----30.04- 53.6 50.7----
2024-06-16 03:24 pmENE 4.1 4.1----30.04- 53.6 50.5----
2024-06-16 03:18 pmENE 2.9 4.1----30.04- 53.6 50.5----
2024-06-16 03:12 pm NE 2.9 5.1----30.05- 53.6 50.5----
2024-06-16 03:06 pm NE 4.1 4.1----30.05- 53.4 50.7----
2024-06-16 03:00 pm NE 4.1 4.1----30.05-0.03 53.2 50.7----
2024-06-16 02:54 pmENE 2.9 4.1----30.05- 53.1 50.7----
2024-06-16 02:48 pm E 2.9 4.1----30.05- 52.7 50.7----
2024-06-16 02:42 pm E 2.9 2.9----30.06- 52.9 50.7----
2024-06-16 02:36 pm E 1.9 2.9----30.06-- 50.7----
2024-06-16 02:30 pmENE 1.9 2.9----30.06-- 50.7----
2024-06-16 02:24 pmENE 2.9 2.9----30.06-- 50.7----
2024-06-16 02:18 pmENE 2.9 2.9----30.06-- 50.7----
2024-06-16 02:12 pm NE 1.9 2.9----30.06-- 50.7----
2024-06-16 02:06 pm NE 1.9 2.9----30.06-- 50.7----
2024-06-16 02:00 pm NE 1.9 2.9----30.06-0.02- 50.7----
2024-06-16 01:54 pmENE 1.9 2.9----30.07-- 50.7----
2024-06-16 01:48 pmENE 1.9 1.9----30.07-- 50.7----
2024-06-16 01:42 pmENE 1.9 1.9----30.07-- 50.7----
2024-06-16 01:36 pm NE 1.9 1.9----30.07-- 50.7----
2024-06-16 01:30 pm NE 1.0 1.9----30.07-- 50.7----
2024-06-16 01:24 pm NE 1.0 1.9----30.07-- 50.7----
2024-06-16 01:18 pmNNE 1.9 1.9----30.07-- 50.7----
2024-06-16 01:12 pm NE 1.9 2.9----30.07-- 50.7----
2024-06-16 01:06 pm NE 1.9 2.9----30.07-- 50.7----
2024-06-16 01:00 pm NE 1.9 1.9----30.08-0.01- 50.7----
2024-06-16 12:54 pmENE 1.9 1.9----30.08-- 50.7----
2024-06-16 12:48 pmENE 1.9 1.9----30.08-- 50.9----
2024-06-16 12:42 pm NE 1.9 1.9----30.08-- 50.9----
2024-06-16 12:36 pm-------30.08- 51.8 50.9----
2024-06-16 12:30 pm-------30.08- 51.8 50.7----
2024-06-16 12:24 pm-------30.08- 51.6 50.9----
2024-06-16 12:18 pm-------30.08- 51.6 50.9----
2024-06-16 12:12 pm-------30.08- 51.6 50.9----
2024-06-16 12:06 pm-------30.08- 51.3 51.1----
2024-06-16 12:00 pm-------30.08-0.01 52.0 51.3----
2024-06-16 11:54 am-------30.08- 51.8 51.3----
2024-06-16 11:48 am-------30.08- 51.4 51.3----
2024-06-16 11:42 am-------30.09- 51.6 51.3----
2024-06-16 11:36 am E 1.0 1.0----30.09- 51.4 51.3----
2024-06-16 11:30 am- 0.0 0.0----30.09- 51.4 51.3----
2024-06-16 11:24 am- 0.0 1.9----30.09- 51.3 51.3----
2024-06-16 11:18 am E 1.9 1.9----30.09- 51.1 51.3----
2024-06-16 11:12 amESE 1.0 1.9----30.09- 50.4 51.3----
2024-06-16 11:06 amESE 1.9 2.9----30.09- 50.9 51.3----
2024-06-16 11:00 amSSE 1.9 2.9----30.09+0.00 50.9 51.3----
2024-06-16 10:54 am SE 1.9 2.9----30.09- 51.1 51.3----
2024-06-16 10:48 amSSW 1.9 4.1----30.09- 51.3 51.3----
2024-06-16 10:42 amSSE 2.9 4.1----30.09- 51.1 51.3----
2024-06-16 10:36 amSSE 1.9 2.9----30.09- 51.3 51.3----
2024-06-16 10:30 am S 1.9 5.1----30.09- 51.1 51.3----
2024-06-16 10:24 am SE 4.1 5.1----30.09- 51.1 51.4----
2024-06-16 10:18 amSSE 1.9 6.0----30.09- 51.3 51.4----
2024-06-16 10:12 am S 1.9 5.1----30.09- 51.4 51.4----
2024-06-16 10:06 am S 2.9 6.0----30.09- 51.3 51.4----
2024-06-16 10:00 am S 5.1 6.0----30.09+0.00 51.3 51.3----
2024-06-16 09:54 am S 4.1 6.0----30.09- 51.1 51.3----
2024-06-16 09:48 am S 5.1 6.0----30.09- 51.1 51.3----
2024-06-16 09:42 am S 5.1 8.9----30.09- 51.1 51.3----
2024-06-16 09:36 am S 5.1 8.9----30.09- 51.1 51.3----
2024-06-16 09:30 am S 5.1 8.9----30.09- 50.9 51.3----
2024-06-16 09:24 amSSE 5.1 8.9----30.09- 51.1 51.3----
2024-06-16 09:18 amSSE 6.0 7.0----30.09- 51.3 51.3----
2024-06-16 09:12 am S 5.1 8.0----30.09- 51.1 51.3----
2024-06-16 09:06 amSSE 7.0 8.0----30.09- 51.1 51.3----
2024-06-16 09:00 amSSE 5.1 8.0----30.09-0.01 51.1 51.3----
2024-06-16 08:54 am S 5.1 9.9----30.09- 51.1 51.1----
2024-06-16 08:48 amSSE 6.0 8.9----30.09- 50.9 51.1----
2024-06-16 08:42 amSSE 6.0 8.0----30.09- 50.9 51.1----
2024-06-16 08:36 am S 4.1 6.0----30.09- 51.4-----
2024-06-16 08:30 am S 2.9 6.0----30.09- 51.3-----
2024-06-16 08:24 amSSW 2.9 6.0----30.09- 51.1-----
2024-06-16 08:18 amSSW 5.1 7.0----30.09- 50.7-----
2024-06-16 08:12 amSSW 1.9 2.9----30.09- 50.9-----
2024-06-16 08:06 amSSW 1.9 4.1----30.09- 50.5-----
2024-06-16 08:00 amSSW 2.9 5.1----30.09-0.02 50.4-----
2024-06-16 07:54 amSSW 1.9 2.9----30.09- 50.2-----
2024-06-16 07:48 amSSW 1.9 4.1----30.09- 50.2-----
2024-06-16 07:42 am S 2.9 4.1----30.09- 50.0-----
2024-06-16 07:36 amSSE 1.9 2.9----30.09- 50.0 51.1----
2024-06-16 07:30 am- 0.0 1.0----30.09- 49.8 51.1----
2024-06-16 07:24 amWSW 1.0 1.9----30.09- 49.6 51.1----
2024-06-16 07:18 amWSW 1.9 2.9----30.09- 49.5 51.1----
2024-06-16 07:12 amWSW 1.9 2.9----30.09- 49.5 51.1----
2024-06-16 07:06 amWSW 1.0 1.9----30.09- 49.5 51.1----
2024-06-16 07:00 amWSW 1.0 1.9----30.09-0.03 49.5 51.1----
2024-06-16 06:54 am- 0.0 1.0----30.10- 49.5 51.1----
2024-06-16 06:48 am W 1.0 1.9----30.10- 49.3 51.1----
2024-06-16 06:42 am W 1.0 1.9----30.09- 49.1 51.1----
2024-06-16 06:36 am W 1.0 1.9----30.10- 49.1 51.1----
2024-06-16 06:30 amWSW 1.0 2.9----30.10- 49.1 51.1----
2024-06-16 06:24 am W 1.0 1.9----30.10- 48.9 51.1----
2024-06-16 06:18 am W 1.0 1.9----30.10- 48.9 51.1----
2024-06-16 06:12 am W 1.0 1.9----30.10- 48.9 51.1----
2024-06-16 06:06 am- 0.0 0.0----30.10- 48.9 51.1----
2024-06-16 06:00 am- 0.0 1.0----30.10-0.02 48.9 51.1----
2024-06-16 05:54 am- 0.0 1.0----30.10- 48.9 51.1----
2024-06-16 05:48 am W 1.0 1.9----30.10- 48.9 51.1----
2024-06-16 05:42 am W 1.0 1.9----30.11- 49.1 51.1----
2024-06-16 05:36 am W 1.0 1.9----30.11-- 51.1----
2024-06-16 05:30 am- 0.0 1.9----30.11-- 51.1----
2024-06-16 05:24 amWSW 1.0 1.9----30.11-- 51.1----
2024-06-16 05:18 amWSW 1.9 2.9----30.11-- 51.1----
2024-06-16 05:12 am W 1.0 1.9----30.11-- 51.1----
2024-06-16 05:06 am W 1.0 2.9----30.11-- 51.1----
2024-06-16 05:00 am W 1.9 2.9----30.11-0.01- 51.1----
2024-06-16 04:54 amWSW 1.9 2.9----30.11-- 51.1----
2024-06-16 04:48 amWSW 1.9 2.9----30.11-- 51.1----
2024-06-16 04:42 amWSW 1.9 2.9----30.11-- 51.1----
2024-06-16 04:36 am W 1.9 4.1----30.11-- 51.1----
2024-06-16 04:30 amWSW 1.9 4.1----30.11-- 51.1----
2024-06-16 04:24 am W 1.9 5.1----30.11-- 51.1----
2024-06-16 04:18 am W 1.9 4.1----30.11-- 51.1----
2024-06-16 04:12 am W 1.9 2.9----30.12-- 51.1----
2024-06-16 04:06 am W 1.0 2.9----30.12-- 51.1----
2024-06-16 04:00 am W 1.9 4.1----30.12-0.01- 51.1----
2024-06-16 03:54 am W 1.0 4.1----30.12-- 51.1----
2024-06-16 03:48 am W 1.9 4.1----30.12-- 51.1----
2024-06-16 03:42 am W 1.9 2.9----30.12-- 51.1----
2024-06-16 03:36 am W 1.0 2.9----30.12- 49.1-----
2024-06-16 03:30 am W 1.0 4.1----30.12- 49.1-----
2024-06-16 03:24 am W 1.9 4.1----30.12- 49.1-----
2024-06-16 03:18 am W 1.9 4.1----30.12- 49.3-----
2024-06-16 03:12 amWSW 2.9 6.0----30.12- 49.3-----
2024-06-16 03:06 am W 2.9 6.0----30.12- 49.3-----
2024-06-16 03:00 amWSW 5.1 6.0----30.13+0.00 49.5-----
2024-06-16 02:54 amWSW 4.1 5.1----30.13- 49.3-----
2024-06-16 02:48 amWSW 4.1 7.0----30.13- 49.3-----
2024-06-16 02:42 amWSW 5.1 8.0----30.13- 49.3-----
2024-06-16 02:36 am W 5.1 7.0----30.13- 49.3 51.1----
2024-06-16 02:30 am W 5.1 8.9----30.13- 49.3 51.1----
2024-06-16 02:24 amWSW 7.0 8.9----30.13- 49.5 51.1----
2024-06-16 02:18 amWSW 5.1 8.0----30.13- 49.5 51.1----
2024-06-16 02:12 amWSW 5.1 8.9----30.13- 49.5 51.1----
2024-06-16 02:06 amWSW 6.0 8.9----30.13- 49.6 51.1----
2024-06-16 02:00 amWSW 6.0 11.1----30.13+0.00 49.6 51.1----
2024-06-16 01:54 amWSW 9.9 12.0----30.13- 49.8 51.1----
2024-06-16 01:48 amWSW 8.0 11.1----30.13- 49.8 51.1----
2024-06-16 01:42 amWSW 7.0 11.1----30.13- 50.0 51.1----
2024-06-16 01:36 amWSW 8.9 12.0----30.13- 50.2-----
2024-06-16 01:30 amWSW 9.9 14.0----30.13- 50.2-----
2024-06-16 01:24 amWSW 9.9 14.0----30.13- 50.4-----
2024-06-16 01:18 amWSW 9.9 14.0----30.13- 50.4-----
2024-06-16 01:12 amWSW 8.9 14.0----30.13- 50.4-----
2024-06-16 01:06 amWSW 9.9 13.0----30.13- 50.4-----
2024-06-16 01:00 amWSW 8.9 14.0----30.13+0.00 50.4-----
2024-06-16 12:54 amWSW 11.1 14.0----30.13- 50.5-----
2024-06-16 12:48 amWSW 11.1 14.0----30.13- 50.7-----
2024-06-16 12:42 amWSW 8.9 14.0----30.13- 50.7-----
2024-06-16 12:36 amWSW 8.9 13.0----30.13- 50.5 51.3----
2024-06-16 12:30 amWSW 8.9 13.0----30.13- 50.5 51.3----
2024-06-16 12:24 amWSW 8.9 11.1----30.13- 50.4 51.3----
2024-06-16 12:18 amWSW 6.0 12.0----30.13- 50.2 51.3----
2024-06-16 12:12 am W 5.1 12.0----30.13- 50.2 51.3----
2024-06-16 12:06 amWSW 5.1 7.0----30.13- 50.0 51.3----
2024-06-16 12:00 amWSW 5.1 8.0----30.13+0.02 50.0 51.3----
2024-06-15 11:54 pmWSW 6.0 11.1----30.13- 50.2 51.3----